Location: Miles
(41.4492°N, 81.6087°W)
Time: 06:14:53
(UTC+00:00)

Vanguard 1 Rocket - Pass Details

Date: 12 September 2024
Orbit: 650 x 4218 km, 34.3° (Epoch: 05 October)

Event Time Altitude Azimuth Distance (km) Brightness Sun altitude
Rises 08:57:08 0° 225° (SW) 5,513 - -23.5°
Reaches altitude 10° 09:00:14 10° 219° (SW) 4,892 - -22.9°
Exits shadow 09:03:30 22° 212° (SSW) 4,363 10.3 -22.4°
Maximum altitude 09:15:08 52° 148° (SSE) 3,947 10.5 -20.5°
Drops below altitude 10° 09:38:48 10° 82° (E) 7,423 13.3 -16.4°
Sets 09:44:55 0° 79° (E) 8,435 14.1 -15.3°
